Fulton, NY

10:11 AM EST on February 14, 2016 (GMT -0500)
Oswego County

Weather History for KFZY - September, 2013

Change the Weather History Date:

Monday, September 16, 2013

  Actual Average (KSYR) Record (KSYR)
Temperature  
Mean Temperature 47 °F 62 °F  
Max Temperature 55 °F 72 °F 98 °F (1939)
Min Temperature 39 °F 52 °F 35 °F (1964)
Degree Days  
Heating Degree Days 18 4  
Month to date heating degree days 44  
Since 1 July heating degree days 70  
Cooling Degree Days 0 2  
Month to date cooling degree days 41  
Year to date cooling degree days 554  
Moisture  
Dew Point 47 °F    
Average Humidity 85    
Maximum Humidity 94    
Minimum Humidity 59    
Precipitation  
Precipitation 0.28 in 0.12 in 2.30 in (1999)
Month to date precipitation 1.90  
Year to date precipitation 26.49  
Snow  
Snow 0.00 in 0.00 in 0.00 in (2002)
Month to date snowfall 0.0  
Since 1 July snowfall 0.0  
Since 1 September snowfall 0.0  
Snow Depth -    
Sea Level Pressure  
Sea Level Pressure 30.18 in    
Wind  
Wind Speed 8 mph (NW)    
Max Wind Speed 15 mph    
Max Gust Speed 24 mph    
Visibility 8 miles    
Events Rain    
T = Trace of Precipitation, MM = Missing Value Source: NWS Daily Summary

Daily Weather History Graph

Daily Weather History Graph

Search for Another Location

Airport or City:

Trip Planner

Search our weather history database for the weather conditions in past years. The results will help you decide how hot, cold, wet, or windy it might be!

Date:

Astronomy

Sep. 16, 2013 Rise Set
Actual Time 6:46 AM EDT 7:13 PM EDT
Civil Twilight 6:17 AM EDT 7:42 PM EDT
Nautical Twilight 5:43 AM EDT 8:15 PM EDT
Astronomical Twilight 5:09 AM EDT 8:50 PM EDT
Moon 5:24 PM EDT (9/16) 3:25 AM EDT (9/16)
Length of Visible Light 13h 24m
Length of Day
12h 27m
Waxing Gibbous, 90% of the Moon is Illuminated
Sep 16
Waxing Gibbous
Sep 19
Full
Sep 26
Last Quarter
Oct 4
New
Oct 11
First Quarter

Hourly Weather History & Observations

Time (EDT) Temp. Dew Point Humidity Pressure Visibility Wind Dir Wind Speed Gust Speed Precip Events Conditions
12:40 AM 55.4 °F 51.8 °F 88% 30.10 in 10.0 mi WNW 9.2 mph - 0.04 in Rain Light Rain
12:54 AM 55.9 °F 52.0 °F 87% 30.09 in 10.0 mi WNW 9.2 mph - 0.05 in Rain Light Rain
1:54 AM 55.0 °F 51.1 °F 86% 30.09 in 10.0 mi West 5.8 mph - 0.03 in Rain Light Rain
2:54 AM 54.0 °F 52.0 °F 93% 30.07 in 10.0 mi South 3.5 mph - 0.00 in   Overcast
3:54 AM 54.0 °F 52.0 °F 93% 30.06 in 10.0 mi SSW 5.8 mph - 0.01 in   Overcast
4:28 AM 53.6 °F 51.8 °F 94% 30.06 in 10.0 mi SSW 4.6 mph - N/A   Overcast
4:54 AM 54.0 °F 52.0 °F 93% 30.07 in 7.0 mi SSW 8.1 mph - 0.00 in Rain Light Rain
5:54 AM 54.0 °F 51.1 °F 90% 30.08 in 10.0 mi SSW 6.9 mph - 0.01 in   Overcast
6:54 AM 53.1 °F 51.1 °F 93% 30.10 in 6.0 mi SW 3.5 mph - 0.02 in Rain Light Rain
7:36 AM 53.6 °F 51.8 °F 94% 30.11 in 2.5 mi SW 6.9 mph - 0.06 in Rain Rain
7:43 AM 53.6 °F 51.8 °F 94% 30.11 in 1.8 mi SW 6.9 mph - 0.08 in Rain Rain
7:51 AM 53.6 °F 50.0 °F 88% 30.11 in 1.8 mi SW 5.8 mph - 0.11 in Rain Rain
7:54 AM 53.1 °F 50.0 °F 89% 30.11 in 2.5 mi SW 3.5 mph - 0.11 in Rain Rain
8:03 AM 53.6 °F 51.8 °F 94% 30.11 in 2.5 mi WNW 5.8 mph - 0.02 in Rain Rain
8:16 AM 53.6 °F 51.8 °F 94% 30.11 in 4.0 mi West 6.9 mph - 0.04 in Rain Light Rain
8:52 AM 53.6 °F 51.8 °F 94% 30.12 in 7.0 mi NNW 5.8 mph - 0.04 in Rain Light Rain
8:54 AM 54.0 °F 51.1 °F 90% 30.13 in 8.0 mi North 5.8 mph - 0.04 in Rain Light Rain
9:36 AM 53.6 °F 51.8 °F 94% 30.14 in 10.0 mi North 10.4 mph - 0.00 in   Overcast
9:54 AM 53.1 °F 50.0 °F 89% 30.15 in 10.0 mi NNE 15.0 mph 20.7 mph 0.00 in   Overcast
10:10 AM 53.6 °F 48.2 °F 82% 30.16 in 10.0 mi NNE 13.8 mph - N/A   Overcast
10:38 AM 53.6 °F 48.2 °F 82% 30.17 in 10.0 mi NNE 12.7 mph 23.0 mph N/A   Overcast
10:54 AM 53.1 °F 48.0 °F 83% 30.18 in 10.0 mi North 12.7 mph 23.0 mph N/A   Overcast
11:47 AM 51.8 °F 48.2 °F 88% 30.19 in 10.0 mi NNE 9.2 mph - 0.01 in Rain Light Rain
11:54 AM 52.0 °F 48.0 °F 86% 30.20 in 10.0 mi NNE 10.4 mph - 0.01 in   Overcast
12:54 PM 53.1 °F 48.0 °F 83% 30.21 in 10.0 mi NNE 11.5 mph - 0.00 in   Overcast
1:50 PM 53.6 °F 46.4 °F 77% 30.22 in 10.0 mi North 12.7 mph 19.6 mph N/A   Overcast
1:54 PM 53.1 °F 45.0 °F 74% 30.23 in 10.0 mi North 13.8 mph 20.7 mph N/A   Overcast
2:54 PM 54.0 °F 44.1 °F 69% 30.24 in 10.0 mi NNE 15.0 mph 24.2 mph N/A   Overcast
3:54 PM 53.1 °F 42.1 °F 66% 30.25 in 10.0 mi North 10.4 mph - N/A   Mostly Cloudy
4:54 PM 53.1 °F 41.0 °F 64% 30.26 in 10.0 mi North 12.7 mph 18.4 mph N/A   Mostly Cloudy
5:08 PM 51.8 °F 39.2 °F 62% 30.26 in 10.0 mi North 10.4 mph - N/A   Scattered Clouds
5:54 PM 54.0 °F 39.9 °F 59% 30.28 in 10.0 mi North 11.5 mph - N/A   Clear
6:54 PM 50.0 °F 39.9 °F 68% 30.30 in 10.0 mi NNW 3.5 mph - N/A   Scattered Clouds
7:54 PM 45.0 °F 41.0 °F 86% 30.32 in 10.0 mi Calm Calm - N/A   Scattered Clouds
8:54 PM 42.1 °F 39.9 °F 92% 30.34 in 10.0 mi Calm Calm - N/A   Clear
9:54 PM 39.9 °F 37.9 °F 93% 30.36 in 10.0 mi Calm Calm - N/A   Clear
10:54 PM 43.0 °F 37.0 °F 80% 30.38 in 10.0 mi Calm Calm - N/A   Partly Cloudy
11:54 PM 41.0 °F 36.0 °F 82% 30.39 in 10.0 mi Calm Calm - N/A   Clear